KPAOKMRY

Guest
Details From KPAO - Palo Alto
To KMRY - Monterey Peninsula
Flight Number -
Tags Generated
Created
Modified
Stats Distance 54 nm / 100 km
Max Altitude 0 ft / 0 m
Waypoints 2
Social Downloads 1
Likes 0
Share VATSIM

Download

Looking for another format? Having issues loading an existing format? Contact us
Advertisement - Login to hide

Notes

Generated

Route

KPAO KMRY

ID Type Via Altitude Latitude Longitude Leg Dist Tot Dist Heading (true) Name
O KPAO APT - 0 ft / 0 m 37.45803˚ -122.11199˚ - 0 nm - Palo Alto
O KMRY APT - 0 ft / 0 m 36.58859˚ -121.84466˚ 53 nm 53 nm 166° / 166° Monterey Peninsula

Altitude Profile

Advertisement - Login to hide

KPAO

Details ICAO KPAO (PAO)
Name Palo Alto
Region United States
Timezone America/Los_Angeles (UTC-7.0)
Stats Elevation 4 ft / 1 m (AMSL)
Location 37.460889° -122.114823°
Runways 1
Magnetic Variation 13.347° E

METAR

KPAO 252347Z 25015KT 10SM BKN030 BKN100 19/11 A3011

Decode

TAF

Not found

Departure Runways

ID Width Length Bearing (true) Bearing (mag) Surface Threshold Offset Overrun Length
31 75 ft / 23 m 2,659 ft / 810 m 321.81° 308.46° Asphalt 213 ft / 65 m 0 ft / 0 m
XXX 75 ft / 23 m 2,659 ft / 810 m 141.80° 128.45° Asphalt 0 ft / 0 m 197 ft / 60 m

KMRY

Details ICAO KMRY (MRY)
Name Monterey Peninsula
Region United States
Timezone America/Los_Angeles (UTC-7.0)
Stats Elevation 257 ft / 78 m (AMSL)
Location 36.586916° -121.841927°
Runways 2
Magnetic Variation 13.117° E

METAR

KMRY 260054Z 23011KT 10SM SCT050 17/09 A3012 RMK AO2 SLP212 T01670094

Decode

TAF

TAF KMRY 252338Z 2600/2624 23012G16KT P6SM VCSH FEW030 SCT060 FM260300 22004KT P6SM BKN030 BKN050 FM260800 21003KT P6SM BKN025 BKN050 FM261500 25006KT P6SM BKN030 BKN050 FM261900 26017KT P6SM SCT030 BKN050

Decode

Destination Runways

ID Width Length Bearing (true) Bearing (mag) Surface Threshold Offset Overrun Length
10L 59 ft / 18 m 3,508 ft / 1,069 m 112.85° 99.73° Asphalt 0 ft / 0 m 230 ft / 70 m
10R 151 ft / 46 m 7,605 ft / 2,318 m 112.84° 99.72° Asphalt 0 ft / 0 m 174 ft / 53 m
28L 151 ft / 46 m 7,605 ft / 2,318 m 292.85° 279.73° Asphalt 1,001 ft / 305 m 190 ft / 58 m
28R 59 ft / 18 m 3,508 ft / 1,069 m 292.85° 279.73° Asphalt 0 ft / 0 m 0 ft / 0 m

Approach Navaids

Runway Type Ident Frequency Range Bearing (true) Bearing (mag) Slope Elevation
10R Localiser IMRY 110.70 MHz 18 nm / 33 km 112.86° 99.74° - 246 ft / 75 m (AMSL)
10R Glidescope IMRY 110.70 MHz 10 nm / 19 km 112.85° 99.73° 3.00° 162 ft / 49 m (AMSL)
10R DME IMRY 110.70 MHz 18 nm / 33 km - - - 267 ft / 81 m (AMSL)
28L Localiser IMTB 110.70 MHz 18 nm / 33 km 292.84° 279.72° - 127 ft / 39 m (AMSL)
28L DME IMTB 110.70 MHz 18 nm / 33 km - - - 155 ft / 47 m (AMSL)

Popular Alternatives